TimeCDT,TemperatureF,Dew PointF,Humidity,Sea Level PressureIn,VisibilityMPH,Wind Direction,Wind SpeedMPH,Gust SpeedMPH,PrecipitationIn,Events,Conditions,WindDirDegrees,DateUTC
12:08 AM,53.1,44.1,71,-9999,-9999.0,NNE,6.9,-,N/A,,Unknown,20,2013-05-10 05:08:00
12:28 AM,52.0,44.1,74,-9999,-9999.0,NNE,5.8,-,N/A,,Unknown,20,2013-05-10 05:28:00
12:48 AM,52.0,44.1,74,-9999,-9999.0,North,4.6,-,N/A,,Unknown,10,2013-05-10 05:48:00
1:08 AM,51.1,42.1,71,-9999,-9999.0,NNW,5.8,-,N/A,,Unknown,340,2013-05-10 06:08:00
1:28 AM,51.1,43.2,74,-9999,-9999.0,NNW,6.9,-,N/A,,Unknown,340,2013-05-10 06:28:00
1:48 AM,51.1,44.1,77,-9999,-9999.0,NNW,4.6,-,N/A,,Unknown,340,2013-05-10 06:48:00
2:08 AM,50.0,43.2,77,-9999,-9999.0,NNW,5.8,-,N/A,,Unknown,330,2013-05-10 07:08:00
2:28 AM,48.9,41.2,75,-9999,-9999.0,NW,5.8,-,N/A,,Unknown,320,2013-05-10 07:28:00
2:48 AM,48.0,41.2,77,-9999,-9999.0,NW,5.8,-,N/A,,Unknown,310,2013-05-10 07:48:00
3:08 AM,48.0,41.2,77,-9999,-9999.0,NW,6.9,-,N/A,,Unknown,310,2013-05-10 08:08:00
3:28 AM,48.0,41.2,77,-9999,-9999.0,WNW,6.9,-,N/A,,Unknown,300,2013-05-10 08:28:00
3:48 AM,46.9,40.1,77,-9999,-9999.0,NW,6.9,-,N/A,,Unknown,320,2013-05-10 08:48:00
4:08 AM,46.9,40.1,77,-9999,-9999.0,NNW,6.9,-,N/A,,Unknown,330,2013-05-10 09:08:00
4:28 AM,48.0,41.2,77,-9999,-9999.0,NNW,6.9,-,N/A,,Unknown,340,2013-05-10 09:28:00
4:48 AM,48.0,42.1,80,-9999,-9999.0,North,5.8,-,N/A,,Unknown,350,2013-05-10 09:48:00
5:08 AM,48.0,41.2,77,-9999,-9999.0,NW,5.8,-,N/A,,Unknown,320,2013-05-10 10:08:00
5:28 AM,48.0,40.1,74,-9999,-9999.0,North,8.1,-,N/A,,Unknown,350,2013-05-10 10:28:00
5:48 AM,48.0,42.1,80,-9999,-9999.0,NW,4.6,-,N/A,,Unknown,320,2013-05-10 10:48:00
6:08 AM,48.0,42.1,80,-9999,-9999.0,NNW,6.9,-,N/A,,Unknown,330,2013-05-10 11:08:00
6:28 AM,46.9,41.2,80,-9999,-9999.0,NW,6.9,-,N/A,,Unknown,320,2013-05-10 11:28:00
6:48 AM,46.0,41.2,83,-9999,-9999.0,NW,4.6,-,N/A,,Unknown,320,2013-05-10 11:48:00
7:08 AM,45.0,40.1,83,-9999,-9999.0,NW,4.6,-,N/A,,Unknown,320,2013-05-10 12:08:00
7:28 AM,46.9,41.2,80,-9999,-9999.0,NNW,6.9,-,N/A,,Unknown,330,2013-05-10 12:28:00
7:48 AM,48.0,42.1,80,-9999,-9999.0,NW,6.9,-,N/A,,Unknown,320,2013-05-10 12:48:00
8:08 AM,48.9,41.2,75,-9999,-9999.0,NW,6.9,-,N/A,,Unknown,310,2013-05-10 13:08:00
8:28 AM,50.0,42.1,74,-9999,-9999.0,NNW,6.9,-,N/A,,Unknown,330,2013-05-10 13:28:00
8:48 AM,52.0,43.2,72,-9999,-9999.0,North,6.9,-,N/A,,Unknown,350,2013-05-10 13:48:00
9:08 AM,53.1,42.1,66,-9999,-9999.0,NNW,10.4,-,N/A,,Unknown,340,2013-05-10 14:08:00
9:28 AM,54.0,44.1,69,-9999,-9999.0,North,8.1,-,N/A,,Unknown,350,2013-05-10 14:28:00
9:48 AM,55.0,44.1,67,-9999,-9999.0,NNE,11.5,-,N/A,,Unknown,20,2013-05-10 14:48:00
10:08 AM,55.9,44.1,64,-9999,-9999.0,North,8.1,-,N/A,,Unknown,350,2013-05-10 15:08:00
10:28 AM,57.9,44.1,60,-9999,-9999.0,North,9.2,-,N/A,,Unknown,360,2013-05-10 15:28:00
10:48 AM,60.1,44.1,55,-9999,-9999.0,NNE,11.5,-,N/A,,Unknown,30,2013-05-10 15:48:00
11:08 AM,61.0,43.2,52,-9999,-9999.0,NE,9.2,-,N/A,,Unknown,50,2013-05-10 16:08:00
11:28 AM,61.0,44.1,54,-9999,-9999.0,NNE,5.8,-,N/A,,Unknown,30,2013-05-10 16:28:00
11:48 AM,-9999,-9999,N/A,-9999,-9999.0,North,-9999.0,-,N/A,,Unknown,0,2013-05-10 16:48:00
12:08 PM,64.0,42.1,45,-9999,-9999.0,NE,11.5,-,N/A,,Unknown,50,2013-05-10 17:08:00
12:28 PM,64.9,40.1,40,-9999,-9999.0,NNE,11.5,-,N/A,,Unknown,20,2013-05-10 17:28:00
12:48 PM,66.0,41.2,40,-9999,-9999.0,ENE,5.8,-,N/A,,Unknown,60,2013-05-10 17:48:00
1:08 PM,64.9,40.1,40,-9999,-9999.0,NNE,8.1,-,N/A,,Unknown,30,2013-05-10 18:08:00
1:28 PM,64.9,40.1,40,-9999,-9999.0,NNE,11.5,-,N/A,,Unknown,30,2013-05-10 18:28:00
1:48 PM,64.0,39.0,40,-9999,-9999.0,NNE,9.2,-,N/A,,Unknown,20,2013-05-10 18:48:00
2:08 PM,66.9,39.0,36,-9999,-9999.0,ENE,8.1,-,N/A,,Unknown,60,2013-05-10 19:08:00
2:28 PM,70.0,39.0,32,-9999,-9999.0,ENE,11.5,-,N/A,,Unknown,70,2013-05-10 19:28:00
2:48 PM,69.1,38.1,32,-9999,-9999.0,East,8.1,-,N/A,,Unknown,80,2013-05-10 19:48:00
3:08 PM,70.0,38.1,31,-9999,-9999.0,North,11.5,-,N/A,,Unknown,10,2013-05-10 20:08:00
3:28 PM,69.1,37.0,31,-9999,-9999.0,ENE,4.6,-,N/A,,Unknown,70,2013-05-10 20:28:00
3:48 PM,71.1,37.0,29,-9999,-9999.0,ENE,4.6,-,N/A,,Unknown,60,2013-05-10 20:48:00
4:08 PM,70.0,37.0,30,-9999,-9999.0,NE,5.8,-,N/A,,Unknown,50,2013-05-10 21:08:00
4:28 PM,71.1,36.1,28,-9999,-9999.0,ENE,6.9,-,N/A,,Unknown,70,2013-05-10 21:28:00
4:48 PM,69.1,36.1,30,-9999,-9999.0,NNE,4.6,-,N/A,,Unknown,30,2013-05-10 21:48:00
5:08 PM,69.1,36.1,30,-9999,-9999.0,ENE,9.2,-,N/A,,Unknown,60,2013-05-10 22:08:00
5:28 PM,70.0,36.1,29,-9999,-9999.0,ENE,6.9,-,N/A,,Unknown,60,2013-05-10 22:28:00
5:48 PM,69.1,36.1,30,-9999,-9999.0,NE,6.9,-,N/A,,Unknown,50,2013-05-10 22:48:00
6:08 PM,68.0,36.1,31,-9999,-9999.0,East,4.6,-,N/A,,Unknown,100,2013-05-10 23:08:00
6:28 PM,70.0,36.1,29,-9999,-9999.0,ENE,10.4,-,N/A,,Unknown,60,2013-05-10 23:28:00
6:48 PM,69.1,35.1,29,-9999,-9999.0,East,10.4,-,N/A,,Unknown,80,2013-05-10 23:48:00
7:08 PM,68.0,37.0,32,-9999,-9999.0,NE,3.5,-,N/A,,Unknown,50,2013-05-11 00:08:00
7:28 PM,68.0,36.1,31,-9999,-9999.0,East,4.6,-,N/A,,Unknown,80,2013-05-11 00:28:00
7:48 PM,66.9,36.1,32,-9999,-9999.0,NNE,8.1,-,N/A,,Unknown,30,2013-05-11 00:48:00
8:08 PM,64.0,40.1,41,-9999,-9999.0,North,13.8,-,N/A,,Unknown,360,2013-05-11 01:08:00
8:28 PM,62.1,41.2,46,-9999,-9999.0,North,10.4,-,N/A,,Unknown,360,2013-05-11 01:28:00
8:48 PM,61.0,42.1,50,-9999,-9999.0,North,10.4,-,N/A,,Unknown,360,2013-05-11 01:48:00
9:08 PM,60.1,41.2,50,-9999,-9999.0,NNE,11.5,-,N/A,,Unknown,20,2013-05-11 02:08:00
9:28 PM,59.0,42.1,53,-9999,-9999.0,North,6.9,-,N/A,,Unknown,10,2013-05-11 02:28:00
9:48 PM,57.9,41.2,54,-9999,-9999.0,North,4.6,-,N/A,,Unknown,360,2013-05-11 02:48:00
10:08 PM,57.0,41.2,55,-9999,-9999.0,North,5.8,-,N/A,,Unknown,10,2013-05-11 03:08:00
10:28 PM,55.9,41.2,58,-9999,-9999.0,North,3.5,-,N/A,,Unknown,360,2013-05-11 03:28:00
10:48 PM,55.9,42.1,60,-9999,-9999.0,NNW,2.3,-,N/A,,Unknown,340,2013-05-11 03:48:00
11:08 PM,55.9,42.1,60,-9999,-9999.0,NW,2.3,-,N/A,,Unknown,320,2013-05-11 04:08:00
11:28 PM,55.0,41.2,60,-9999,-9999.0,West,2.3,-,N/A,,Unknown,280,2013-05-11 04:28:00
11:48 PM,54.0,41.2,62,-9999,-9999.0,West,4.6,-,N/A,,Unknown,280,2013-05-11 04:48:00